| time (UTC) | temp C | wind direction | speed KPH | gust KPH | rain 1hr cm | rain 24hr cm | rain mn cm | humidity % | barometer mb |
| 20260906211513 | 17 | 319 | 1.6 | 14.5 | 0.00 | 0.23 | 0.18 | 71 | 1014.7 |
| 20260906210012 | 17 | 304 | 6.4 | 24.1 | 0.00 | 0.23 | 0.18 | 68 | 1014.7 |
| 20260906204512 | 18 | 5 | 0.0 | 19.3 | 0.00 | 0.23 | 0.18 | 69 | 1014.5 |
| 20260906203012 | 18 | 322 | 1.6 | 14.5 | 0.00 | 0.23 | 0.18 | 67 | 1014.5 |
| 20260906201510 | 18 | 26 | 4.8 | 20.9 | 0.00 | 0.23 | 0.18 | 64 | 1014.4 |
| 20260906200011 | 18 | 304 | 4.8 | 17.7 | 0.00 | 0.23 | 0.18 | 62 | 1014.2 |
| 20260906194509 | 18 | 327 | 9.7 | 16.1 | 0.00 | 0.23 | 0.18 | 65 | 1014.2 |
| 20260906193009 | 18 | 292 | 6.4 | 12.9 | 0.00 | 0.23 | 0.18 | 67 | 1014.3 |
| 20260906191509 | 18 | 301 | 3.2 | 19.3 | 0.00 | 0.23 | 0.18 | 65 | 1014.4 |
| 20260906190008 | 19 | 340 | 8.0 | 17.7 | 0.00 | 0.23 | 0.18 | 65 | 1014.3 |
| 20260906184510 | 19 | 301 | 6.4 | 19.3 | 0.00 | 0.23 | 0.18 | 67 | 1014.3 |
| 20260906183004 | 18 | 34 | 4.8 | 22.5 | 0.00 | 0.23 | 0.18 | 69 | 1014.5 |
| 20260906181600 | 18 | 308 | 4.8 | 16.1 | 0.00 | 0.23 | 0.18 | 73 | 1014.6 |
| 20260906180107 | 18 | 360 | 4.8 | 16.1 | 0.00 | 0.23 | 0.18 | 75 | 1014.6 |
| 20260906174555 | 17 | 331 | 11.3 | 20.9 | 0.00 | 0.23 | 0.18 | 75 | 1014.7 |
| 20260906173054 | 17 | 302 | 0.0 | 17.7 | 0.00 | 0.23 | 0.18 | 75 | 1014.8 |
| 20260906171559 | 17 | 355 | 8.0 | 19.3 | 0.00 | 0.23 | 0.18 | 79 | 1015.0 |
| 20260906170106 | 16 | 40 | 0.0 | 11.3 | 0.00 | 0.23 | 0.18 | 78 | 1015.2 |
| 20260906164549 | 16 | 327 | 6.4 | 17.7 | 0.00 | 0.23 | 0.18 | 79 | 1015.2 |
| 20260906163056 | 17 | 331 | 6.4 | 19.3 | 0.00 | 0.23 | 0.18 | 81 | 1015.2 |
| 20260906161549 | 16 | 350 | 0.0 | 8.0 | 0.00 | 0.23 | 0.18 | 80 | 1015.1 |
| 20260906160053 | 16 | 345 | 1.6 | 20.9 | 0.03 | 0.23 | 0.18 | 79 | 1015.2 |
| 20260906154547 | 17 | 17 | 1.6 | 14.5 | 0.03 | 0.23 | 0.18 | 76 | 1015.2 |
| 20260906153047 | 17 | 318 | 3.2 | 12.9 | 0.03 | 0.23 | 0.18 | 77 | 1015.1 |
| 20260906151545 | 16 | 28 | 0.0 | 11.3 | 0.03 | 0.23 | 0.18 | 85 | 1015.3 |
| 20260906150039 | 15 | 355 | 0.0 | 16.1 | 0.00 | 0.20 | 0.15 | 88 | 1015.4 |
| 20260906144542 | 14 | 347 | 6.4 | 12.9 | 0.00 | 0.20 | 0.15 | 87 | 1015.2 |
| 20260906143035 | 13 | 295 | 0.0 | 11.3 | 0.00 | 0.20 | 0.15 | 87 | 1015.0 |
| 20260906141530 | 13 | 42 | 0.0 | 0.0 | 0.00 | 0.20 | 0.15 | 87 | 1015.0 |
| 20260906140029 | 13 | 315 | 0.0 | 0.0 | 0.05 | 0.20 | 0.15 | 87 | 1015.0 |
| 20260906134527 | 12 | 298 | 0.0 | 0.0 | 0.05 | 0.20 | 0.15 | 87 | 1015.0 |
| 20260906133026 | 12 | 311 | 0.0 | 0.0 | 0.05 | 0.20 | 0.15 | 87 | 1014.9 |
| 20260906131527 | 12 | 209 | 0.0 | 0.0 | 0.05 | 0.20 | 0.15 | 87 | 1014.8 |
| 20260906130024 | 12 | 208 | 0.0 | 0.0 | 0.00 | 0.15 | 0.10 | 87 | 1014.9 |
| 20260906124522 | 11 | 208 | 0.0 | 0.0 | 0.00 | 0.15 | 0.10 | 87 | 1014.9 |
| 20260906123022 | 11 | 208 | 0.0 | 0.0 | 0.00 | 0.15 | 0.10 | 87 | 1014.8 |
| 20260906121521 | 11 | 208 | 0.0 | 0.0 | 0.00 | 0.15 | 0.10 | 87 | 1014.6 |
| 20260906120018 | 11 | 167 | 0.0 | 0.0 | 0.00 | 0.15 | 0.10 | 87 | 1014.7 |
| 20260906114616 | 11 | 167 | 0.0 | 0.0 | 0.00 | 0.15 | 0.10 | 87 | 1014.6 |
| 20260906113017 | 11 | 145 | 0.0 | 0.0 | 0.00 | 0.15 | 0.10 | 87 | 1014.3 |
| 20260906111513 | 11 | 145 | 0.0 | 0.0 | 0.00 | 0.15 | 0.10 | 87 | 1014.2 |
| 20260906110013 | 11 | 145 | 0.0 | 0.0 | 0.00 | 0.15 | 0.10 | 87 | 1014.0 |
| 20260906104508 | 11 | 145 | 0.0 | 0.0 | 0.00 | 0.15 | 0.10 | 87 | 1013.8 |
| 20260906103004 | 11 | 165 | 0.0 | 0.0 | 0.00 | 0.15 | 0.10 | 87 | 1013.6 |
| 20260906101507 | 11 | 166 | 0.0 | 0.0 | 0.00 | 0.15 | 0.10 | 88 | 1013.4 |
| 20260906100001 | 12 | 166 | 0.0 | 0.0 | 0.00 | 0.15 | 0.10 | 88 | 1013.4 |
| 20260906094600 | 12 | 165 | 0.0 | 0.0 | 0.00 | 0.15 | 0.10 | 87 | 1013.2 |
| 20260906093102 | 12 | 165 | 0.0 | 0.0 | 0.00 | 0.15 | 0.10 | 88 | 1013.1 |
| 20260906091556 | 12 | 165 | 0.0 | 0.0 | 0.00 | 0.15 | 0.10 | 88 | 1013.0 |
| 20260906090058 | 12 | 165 | 0.0 | 0.0 | 0.00 | 0.15 | 0.10 | 87 | 1012.9 |
| 20260906084555 | 12 | 165 | 0.0 | 0.0 | 0.00 | 0.15 | 0.10 | 88 | 1012.8 |
| 20260906083054 | 12 | 165 | 0.0 | 0.0 | 0.00 | 0.15 | 0.10 | 88 | 1012.7 |
| 20260906081553 | 12 | 165 | 0.0 | 0.0 | 0.00 | 0.15 | 0.10 | 88 | 1012.6 |
| 20260906080100 | 12 | 165 | 0.0 | 0.0 | 0.00 | 0.15 | 0.10 | 87 | 1012.8 |
| 20260906074551 | 12 | 165 | 0.0 | 0.0 | 0.00 | 0.15 | 0.10 | 88 | 1012.8 |
| 20260906073053 | 12 | 165 | 0.0 | 0.0 | 0.00 | 0.15 | 0.10 | 88 | 1012.5 |
| 20260906071553 | 12 | 165 | 0.0 | 0.0 | 0.03 | 0.15 | 0.10 | 88 | 1012.6 |
| 20260906070054 | 12 | 165 | 0.0 | 0.0 | 0.03 | 0.15 | 0.10 | 88 | 1012.5 |
| 20260906064551 | 12 | 165 | 0.0 | 0.0 | 0.03 | 0.15 | 0.10 | 88 | 1012.5 |
| 20260906063046 | 12 | 165 | 0.0 | 0.0 | 0.05 | 0.15 | 0.10 | 88 | 1012.5 |
| 20260906061545 | 12 | 165 | 0.0 | 0.0 | 0.03 | 0.13 | 0.08 | 88 | 1012.5 |
| 20260906060044 | 12 | 165 | 0.0 | 0.0 | 0.05 | 0.13 | 0.08 | 88 | 1012.6 |
| 20260906054557 | 13 | 165 | 0.0 | 0.0 | 0.08 | 0.13 | 0.08 | 88 | 1012.7 |
| 20260906053042 | 13 | 165 | 0.0 | 0.0 | 0.05 | 0.10 | 0.05 | 89 | 1012.7 |
| 20260906051602 | 13 | 165 | 0.0 | 0.0 | 0.05 | 0.10 | 0.05 | 89 | 1012.7 |
| 20260906050044 | 13 | 165 | 0.0 | 0.0 | 0.00 | 0.05 | 0.00 | 89 | 1012.8 |
| 20260906044548 | 13 | 165 | 0.0 | 0.0 | 0.00 | 0.05 | 0.00 | 89 | 1012.8 |
| 20260906043038 | 13 | 165 | 0.0 | 0.0 | 0.00 | 0.05 | 0.00 | 89 | 1012.8 |
| 20260906041537 | 13 | 165 | 0.0 | 0.0 | 0.00 | 0.05 | 0.00 | 89 | 1012.7 |
| 20260906034533 | 13 | 196 | 0.0 | 0.0 | 0.03 | 0.05 | 0.05 | 89 | 1012.8 |
| 20260906033044 | 13 | 196 | 0.0 | 0.0 | 0.05 | 0.05 | 0.05 | 89 | 1012.7 |
| 20260906031530 | 14 | 191 | 0.0 | 0.0 | 0.05 | 0.05 | 0.05 | 89 | 1012.6 |
| 20260906030029 | 14 | 138 | 0.0 | 0.0 | 0.03 | 0.03 | 0.03 | 89 | 1012.3 |
| 20260906024527 | 15 | 199 | 0.0 | 14.5 | 0.03 | 0.03 | 0.03 | 88 | 1012.0 |
| 20260906023026 | 15 | 143 | 0.0 | 16.1 | 0.00 | 0.00 | 0.00 | 88 | 1012.2 |
| 20260906021526 | 16 | 65 | 3.2 | 16.1 | 0.00 | 0.00 | 0.00 | 87 | 1012.0 |
| 20260906020025 | 16 | 334 | 0.0 | 9.7 | 0.00 | 0.00 | 0.00 | 87 | 1011.8 |
| 20260906014528 | 16 | 30 | 3.2 | 14.5 | 0.00 | 0.00 | 0.00 | 87 | 1011.7 |
| 20260906013028 | 16 | 26 | 3.2 | 16.1 | 0.00 | 0.00 | 0.00 | 87 | 1011.8 |
| 20260906011524 | 16 | 65 | 0.0 | 1.6 | 0.00 | 0.00 | 0.00 | 88 | 1011.9 |
| 20260906010023 | 16 | 355 | 0.0 | 0.0 | 0.00 | 0.00 | 0.00 | 88 | 1011.8 |
| 20260906004521 | 17 | 355 | 0.0 | 0.0 | 0.00 | 0.00 | 0.00 | 87 | 1011.7 |
| 20260906003020 | 17 | 13 | 0.0 | 0.0 | 0.00 | 0.00 | 0.00 | 87 | 1011.4 |
| 20260906001518 | 17 | 329 | 0.0 | 9.7 | 0.00 | 0.00 | 0.00 | 87 | 1011.3 |
| 20260906000019 | 17 | 20 | 0.0 | 11.3 | 0.00 | 0.00 | 0.00 | 87 | 1011.3 |
| 20260905234518 | 17 | 5 | 1.6 | 11.3 | 0.00 | 0.00 | 0.00 | 86 | 1011.1 |
| 20260905233014 | 17 | 333 | 0.0 | 0.0 | 0.00 | 0.00 | 0.00 | 85 | 1010.9 |
| 20260905231518 | 17 | 314 | 0.0 | 0.0 | 0.00 | 0.00 | 0.00 | 85 | 1010.7 |
| 20260905230012 | 17 | 16 | 3.2 | 17.7 | 0.00 | 0.00 | 0.00 | 84 | 1010.7 |
| 20260905224523 | 18 | 323 | 1.6 | 11.3 | 0.00 | 0.00 | 0.00 | 83 | 1010.5 |
| 20260905223010 | 18 | 323 | 0.0 | 9.7 | 0.00 | 0.00 | 0.00 | 82 | 1010.4 |
| 20260905221509 | 18 | 311 | 0.0 | 14.5 | 0.00 | 0.00 | 0.00 | 81 | 1010.3 |
| 20260905220009 | 18 | 61 | 1.6 | 9.7 | 0.00 | 0.00 | 0.00 | 81 | 1010.4 |
| 20260905214508 | 19 | 5 | 6.4 | 20.9 | 0.00 | 0.00 | 0.00 | 79 | 1010.3 |
| 20260905213006 | 19 | 360 | 4.8 | 16.1 | 0.00 | 0.00 | 0.00 | 79 | 1010.2 |